Regional Weather Roundup
Issued by NWS

Home | Current Version | Previous Version | Text Only | Print | Product List | Glossary Off
Versions: 1 2 3 4 5 6 7 8 9 10 11 12 13 14 15 16 17 18 19 20 21 22 23 24 25 26 27 28 29 30 31 32 33 34 35 36 37 38 39 40 41 42 43 44 45 46 47 48 49 50

000
ASUS43 KBIS 310210
RWRND

NORTH DAKOTA REGIONAL WEATHER ROUNDUP
NATIONAL WEATHER SERVICE BISMARCK ND
900 PM CDT SAT AUG 30 2014

NOTE: "FAIR" INDICATES FEW OR NO CLOUDS BELOW 12,000 FEET WITH NO
SIGNIFICANT WEATHER AND/OR OBSTRUCTIONS TO VISIBILITY.


NDZ001>003-009>011-017-310300-
NORTHWEST NORTH DAKOTA

CITY           SKY/WX    TMP DP  RH WIND       PRES   REMARKS
WILLISTON      MOCLDY    62  60  93 NE6       29.68F
MINOT AFB      CLOUDY    67  55  66 SE8       29.68S
$$

NDZ018>021-031>035-040>046-310300-
SOUTHWEST NORTH DAKOTA

CITY           SKY/WX    TMP DP  RH WIND       PRES   REMARKS
BISMARCK       PTCLDY    66  57  72 E12       29.68F
DICKINSON      CLOUDY    66  59  78 E7        29.66R
GARRISON         N/A     66  58  75 SE8       29.68F
HETTINGER ARPT MOCLDY    68  57  68 E13       29.66R
$$

NDZ004>008-012>016-024-026-027-054-310300-
NORTHEAST NORTH DAKOTA

CITY           SKY/WX    TMP DP  RH WIND       PRES   REMARKS
GRAND FORKS    PTCLDY    66  58  75 SE10      29.78F
GRND FRKS AFB  PTCLDY    65  57  75 SE8       29.79F
DEVILS LAKE    PTCLDY    64  52  63 SE13      29.76F
$$

NDZ022-023-025-028>030-036>039-047>053-310300-
SOUTHEAST NORTH DAKOTA

CITY           SKY/WX    TMP DP  RH WIND       PRES   REMARKS
FARGO          MOCLDY    66  59  78 SE6       29.80F
JAMESTOWN      CLEAR     61  57  87 SE10      29.77F
$$




USA.gov is the U.S. government's official web portal to all federal, state and local government web resources and services.